AEE359 LGSR-LGAV

Flight info

Callsign AEE359
Flight time 0h 28m
Altitude 18000
Route MADEX M601 MIL Y144 BADEL
Aircraft A320/M-SDE3FGHIRWY/LB1

Departure

Time 2026-04-30 18:42
Airport Santorini International Airport (LGSR)

Arrival

Time 2026-04-30 19:11
Airport Athens Eleftherios Venizelos International Airport (LGAV)
Time Latitude Longitude Altitude Speed Heading
2026-04-30 18:19 36.40420 25.47343 90 ft 0 kts 249°
2026-04-30 18:21 36.40420 25.47344 90 ft 0 kts 249°
2026-04-30 18:36 36.40424 25.47356 93 ft 4 kts 249°
2026-04-30 18:36 36.40431 25.47381 92 ft 4 kts 265°
2026-04-30 18:36 36.40402 25.47418 90 ft 4 kts 339°
2026-04-30 18:37 36.40377 25.47430 90 ft 3 kts 339°
2026-04-30 18:37 36.40372 25.47432 90 ft 0 kts 339°
2026-04-30 18:38 36.40374 25.47432 90 ft 1 kts 339°
2026-04-30 18:39 36.40391 25.47427 91 ft 5 kts 355°
2026-04-30 18:39 36.40420 25.47463 92 ft 9 kts 67°
2026-04-30 18:39 36.40384 25.47527 90 ft 15 kts 156°
2026-04-30 18:39 36.40246 25.47592 91 ft 28 kts 159°
2026-04-30 18:40 36.40029 25.47695 88 ft 37 kts 159°
2026-04-30 18:40 36.39786 25.47809 86 ft 38 kts 159°
2026-04-30 18:40 36.39532 25.47929 74 ft 40 kts 159°
2026-04-30 18:40 36.39272 25.48051 60 ft 37 kts 159°
2026-04-30 18:41 36.39139 25.48114 60 ft 24 kts 160°
2026-04-30 18:41 36.39008 25.48238 54 ft 15 kts 72°
2026-04-30 18:41 36.39069 25.48318 55 ft 13 kts 349°
2026-04-30 18:41 36.39130 25.48290 58 ft 18 kts 339°
2026-04-30 18:42 36.39481 25.48121 65 ft 90 kts 339°
2026-04-30 18:42 36.41268 25.47299 431 ft 161 kts 339°
2026-04-30 18:42 36.42326 25.46900 1091 ft 158 kts 341°
2026-04-30 18:45 36.57522 25.42233 6756 ft 277 kts 344°
2026-04-30 18:45 36.59475 25.41628 7084 ft 301 kts 344°
2026-04-30 18:45 36.61536 25.40793 7379 ft 321 kts 332°
2026-04-30 18:46 36.63414 25.39255 7988 ft 326 kts 317°
2026-04-30 18:46 36.64909 25.37128 8743 ft 328 kts 302°
2026-04-30 18:46 36.65886 25.34561 9514 ft 330 kts 287°
2026-04-30 18:46 36.66325 25.31746 10268 ft 332 kts 279°
2026-04-30 18:47 36.66671 25.28929 10979 ft 335 kts 279°
2026-04-30 18:47 36.67026 25.26053 11654 ft 338 kts 279°
2026-04-30 18:47 36.67384 25.23147 12314 ft 341 kts 279°
2026-04-30 18:47 36.67755 25.20145 12557 ft 363 kts 279°
2026-04-30 18:48 36.68152 25.16935 12818 ft 387 kts 279°
2026-04-30 18:48 36.68540 25.13533 13249 ft 404 kts 278°
2026-04-30 18:48 36.68907 25.10029 14020 ft 411 kts 278°
2026-04-30 18:48 36.69266 25.06468 14838 ft 417 kts 277°
2026-04-30 18:49 36.69625 25.02866 15667 ft 422 kts 277°
2026-04-30 18:49 36.69988 24.99218 16501 ft 426 kts 277°
2026-04-30 18:49 36.70358 24.95535 17287 ft 430 kts 277°
2026-04-30 18:49 36.70737 24.91828 17723 ft 433 kts 277°
2026-04-30 18:50 36.71122 24.88093 17951 ft 435 kts 277°
2026-04-30 18:50 36.71506 24.84358 18010 ft 435 kts 277°
2026-04-30 18:50 36.71889 24.80623 18007 ft 434 kts 277°
2026-04-30 18:50 36.72268 24.76885 18008 ft 434 kts 277°
2026-04-30 18:51 36.72645 24.73152 18008 ft 434 kts 277°
2026-04-30 18:51 36.73022 24.69417 18008 ft 434 kts 277°
2026-04-30 18:51 36.73399 24.65681 18008 ft 434 kts 277°
2026-04-30 18:51 36.73771 24.61944 18005 ft 434 kts 277°
2026-04-30 18:52 36.74141 24.58206 18004 ft 434 kts 277°
2026-04-30 18:52 36.74627 24.54494 18004 ft 435 kts 284°
2026-04-30 18:52 36.75637 24.50944 18001 ft 435 kts 294°
2026-04-30 18:52 36.77169 24.47692 17999 ft 436 kts 304°
2026-04-30 18:53 36.78931 24.44610 17994 ft 436 kts 304°
2026-04-30 18:53 36.80697 24.41531 17992 ft 436 kts 304°
2026-04-30 18:53 36.82462 24.38451 17990 ft 436 kts 304°
2026-04-30 18:53 36.84221 24.35369 17994 ft 436 kts 304°
2026-04-30 18:54 36.85975 24.32284 17996 ft 435 kts 304°
2026-04-30 18:54 36.87726 24.29202 17996 ft 435 kts 304°
2026-04-30 18:54 36.89475 24.26120 17995 ft 435 kts 304°
2026-04-30 18:54 36.91222 24.23039 17987 ft 435 kts 304°
2026-04-30 18:55 36.92965 24.19956 17985 ft 434 kts 304°
2026-04-30 18:55 36.96446 24.13785 17981 ft 434 kts 304°
2026-04-30 18:55 36.98183 24.10700 17976 ft 434 kts 304°
2026-04-30 18:56 37.01663 24.04527 17979 ft 434 kts 303°
2026-04-30 18:56 37.03378 24.01484 17980 ft 434 kts 303°
2026-04-30 18:56 37.05117 23.98400 17974 ft 433 kts 303°
2026-04-30 18:57 37.08593 23.92234 17984 ft 433 kts 303°
2026-04-30 18:57 37.10350 23.89108 17983 ft 433 kts 303°
2026-04-30 18:57 37.12080 23.86022 17978 ft 433 kts 303°
2026-04-30 18:58 37.15420 23.80081 16975 ft 393 kts 306°
2026-04-30 18:58 37.17275 23.77709 16019 ft 384 kts 320°
2026-04-30 18:58 37.19566 23.76043 14970 ft 380 kts 336°
2026-04-30 18:59 37.24699 23.75285 13327 ft 364 kts
2026-04-30 19:00 37.31972 23.75845 11593 ft 344 kts 357°
2026-04-30 19:00 37.34346 23.75688 11066 ft 341 kts 353°
2026-04-30 19:00 37.38985 23.75319 10528 ft 322 kts 353°
2026-04-30 19:01 37.43293 23.74998 10288 ft 299 kts 353°
2026-04-30 19:01 37.45337 23.74841 10160 ft 290 kts 353°
2026-04-30 19:02 37.49283 23.74528 9921 ft 281 kts 353°
2026-04-30 19:02 37.53004 23.74243 9615 ft 255 kts 353°
2026-04-30 19:03 37.56484 23.73971 8694 ft 249 kts 353°
2026-04-30 19:03 37.59940 23.73694 7669 ft 248 kts 353°
2026-04-30 19:04 37.63371 23.73423 6687 ft 246 kts 354°
2026-04-30 19:04 37.66774 23.73159 5745 ft 242 kts 354°
2026-04-30 19:05 37.70061 23.73484 5064 ft 236 kts 21°
2026-04-30 19:05 37.72576 23.75595 4992 ft 208 kts 34°
2026-04-30 19:06 37.74933 23.77817 4538 ft 211 kts 35°
2026-04-30 19:06 37.76105 23.78925 4252 ft 210 kts 35°
2026-04-30 19:06 37.78441 23.81133 3718 ft 209 kts 35°
2026-04-30 19:07 37.80760 23.83327 3169 ft 208 kts 35°
2026-04-30 19:07 37.81916 23.84422 2895 ft 207 kts 36°
2026-04-30 19:08 37.84216 23.86600 2354 ft 205 kts 36°
2026-04-30 19:08 37.86338 23.88611 1837 ft 175 kts 37°
2026-04-30 19:08 37.87276 23.89501 1649 ft 160 kts 38°
2026-04-30 19:09 37.88954 23.91093 1220 ft 146 kts 37°
2026-04-30 19:09 37.89757 23.91856 1025 ft 142 kts 37°
2026-04-30 19:09 37.90544 23.92603 832 ft 140 kts 37°
2026-04-30 19:10 37.92089 23.94071 456 ft 138 kts 36°
2026-04-30 19:10 37.93481 23.95395 284 ft 92 kts 37°
2026-04-30 19:11 37.93907 23.95799 279 ft 63 kts 37°
2026-04-30 19:11 37.94276 23.96014 293 ft 0 kts
2026-04-30 19:12 37.94305 23.96010 295 ft 6 kts 341°
2026-04-30 19:12 37.94333 23.95963 300 ft 8 kts 287°
2026-04-30 19:12 37.94363 23.95878 299 ft 13 kts 307°
2026-04-30 19:13 37.94452 23.95766 300 ft 1 kts 307°
2026-04-30 19:13 37.94455 23.95761 300 ft 0 kts 307°